Hors Challenge

L'STC Night Trail à Cerfontaine (10.00 km)

dimanche 30 décembre 2018

Vous pouvez trouver Le classement original sur : http://www.extreme-sport.be/
 
STC NIGHT TRAIL - CERFONTAINE
DISTANCE : 9.98 km
dimanche 30 décembre 2018
 
Place dos NOM Catégorie Pl/cat temps temps/km Vitesse
01:00:00              
1 553 BADOT BENOÎT SEH 1 0:41:35 04:10 14.40
2 280 CHAUSSIER GRÉGORY SEH 2 0:41:44 04:11 14.35
3 575 GREGOIRE VALENTIN SEH 3 0:42:23 04:15 14.13
4 562 BRUGGEMAN PIETER-JAN SEH 4 0:42:36 04:16 14.06
5 767 EVRATS CELESTIN EG 1 0:42:57 04:18 13.94
6 262 FLORIMOND CÉDRIC SEH 5 0:43:27 04:21 13.78
7 554 FRIPPIA JEAN SEH 6 0:43:35 04:22 13.74
8 241 COLAS SEBASTIEN SEH 7 0:45:09 04:31 13.26
9 549 CATOIR BERTRAND V1H 1 0:46:04 04:37 13.00
10 200 ROLDAN ADRIEN SEH 8 0:46:36 04:40 12.85
11 565 VANHOUTTE OLIVIER SEH 9 0:46:37 04:40 12.85
12 507 MALCOURANT CYRILLE V1H 2 0:46:49 04:41 12.79
13 597 PIRMEZ NICOLAS SEH 10 0:46:56 04:42 12.76
14 162 BAILY DAMIEN SEH 11 0:46:56 04:42 12.76
15 566 PONCELET FREDERIC V1H 3 0:47:11 04:44 12.69
16 591 SERVOTTE BENOIT SEH 12 0:47:32 04:46 12.60
17 519 HUYS FLORENT SEH 13 0:48:05 04:49 12.45
18 290 MORTIER PIERRE V2H 1 0:48:33 04:52 12.33
19 201 COOREVITS PIETER SEH 14 0:50:11 05:02 11.93
20 242 COTTIN ARNAUD SEH 15 0:50:36 05:04 11.83
21 584 THIBAUT VINCENT SEH 16 0:50:46 05:05 11.80
22 546 CASTIGLIA PHILIPPE XXX   0:50:49 05:06 11.78
23 587 DUMONT LOUIS SEH 17 0:52:20 05:15 11.44
24 503 DELMOTTE SIMON SEH 18 0:53:06 05:19 11.28
25 557 ALCOVER MICHAEL SEH 19 0:53:28 05:21 11.20
26 278 MALTZKORN SARAH SEF 1 0:53:57 05:24 11.10
27 279 JACUCHA JULIEN SEH 20 0:54:01 05:25 11.09
28 580 MOUSSET THIBAUT SEH 21 0:54:01 05:25 11.09
29 534 MISTRETTA THÉO SEH 22 0:54:03 05:25 11.08
30 164 VERDUYCKT KRIS V1H 4 0:55:27 05:33 10.80
31 535 VILLANI PASCAL SEH 23 0:55:27 05:33 10.80
32 530 RUSSO QUENTIN SEH 24 0:55:28 05:33 10.80
33 263 RUYKENS JOHN SEH 25 0:55:49 05:36 10.73
34 500 LANIS MATHIEU SEH 26 0:55:57 05:36 10.70
35 264 BIERLAIRE NICOLAS SEH 27 0:55:59 05:37 10.70
36 286 NICOLAS CATHERINE SEF 2 0:56:14 05:38 10.65
37 251 CORDEWENER LAURENT V1H 5 0:56:14 05:38 10.65
38 589 DUMONT DENIS V2H 2 0:56:50 05:42 10.54
39 274 VANDENBERGHE JÉRÔME SEH 28 0:56:52 05:42 10.53
40 533 FALISE VINCENT V1H 6 0:57:24 05:45 10.43
41 166 VREYS BRAM SEH 29 0:57:44 05:47 10.37
42 307 GRANIE JEAN MARC V2H 3 0:57:57 05:48 10.33
43 305 GRANIE BENJAMIN SEH 30 0:57:58 05:48 10.33
44 271 CHOVEL KARINE V1F 1 0:58:25 05:51 10.25
45 220 SMAL AURORE SEF 3 0:58:30 05:52 10.24
46 297 NICOLAS JORDAN SEH 31 0:58:44 05:53 10.20
47 721 DUCULOT AURÉLIEN EG 2 0:58:52 05:54 10.17
48 548 DERDEYN JOHAN V1H 7 0:59:18 05:57 10.10
49 722 FRIPIAT JULIEN SEH 32 0:59:21 05:57 10.09
50 531 LOUVIEAUX NICOLAS SEH 33 0:59:23 05:57 10.08
51 601 HAUBE PIERRE ALAIN SEH 34 0:59:44 05:59 10.02
52 234 LOUIS JOHN V2H 4 0:59:45 05:59 10.02
53 536 MASSON SEBASTIEN SEH 35 1:00:10 06:02 9.95
54 252 CORDEWENER JOEL V1H 8 1:00:11 06:02 9.95
55 560 LORENT SEAN EG 3 1:00:39 06:05 9.87
56 458 HOUZE THIERRY V1H 9 1:00:43 06:05 9.86
57 168 HENDRIKS BRAM SEH 36 1:01:13 06:08 9.78
58 574 JANS NICOLAS SEH 37 1:01:15 06:08 9.78
59 567 SIPURA JULIE SEF 4 1:01:15 06:08 9.78
60 316 DEBENS CHARLEYNE SEF 5 1:01:37 06:10 9.72
61 578 DERAVE BETTINA V1F 2 1:01:38 06:11 9.72
62 260 MAFFEI RAPHAEL V1H 10 1:02:03 06:13 9.65
63 277 DELUIGUE VÉRONIQUE V1F 3 1:02:04 06:13 9.65
64 276 GHISLAIN SAMUEL XXX   1:02:05 06:13 9.65
65 561 DELVAUX PIERRE-YVES SEH 38 1:02:17 06:14 9.61
66 261 TAS JEAN-YVES SEH 39 1:02:19 06:15 9.61
67 288 MICHAELS THIERRY XXX   1:02:39 06:17 9.56
68 308 DUPUIS YVES V1H 11 1:02:46 06:17 9.54
69 499 TSCHIRR GEORGES V3H 1 1:03:03 06:19 9.50
70 311 TSCHIRR LAURENT V1H 12 1:03:03 06:19 9.50
71 581 GOETHALS CLEMENTINE EF 1 1:03:22 06:21 9.45
72 207 LAMBERT JEROME SEH 40 1:03:31 06:22 9.43
73 563 SERESSIA MAITE SEF 6 1:03:39 06:23 9.41
74 237 RYDE LUCAS EG 4 1:04:05 06:25 9.34
75 177 LANNEAU GREG V1H 13 1:04:34 06:28 9.27
76 299 NICOLAS FRÉDÉRICK V1H 14 1:05:08 06:32 9.19
77 515 ROUVEZ ALEXANDRE SEH 41 1:05:27 06:33 9.15
78 760 LOSSEAU ALEXIS SEH 42 1:05:28 06:34 9.15
79 514 PELGRIMS THOMAS SEH 43 1:05:28 06:34 9.15
80 167 VAN DEN EYNDE NANCY SEF 7 1:05:33 06:34 9.14
81 205 POURBAIX GREGORY SEH 44 1:05:33 06:34 9.14
82 273 BELLENGIER AURORE SEF 8 1:05:48 06:36 9.10
83 512 LEMAIRE OLIVIER V1H 15 1:05:54 06:36 9.09
84 516 SILLIARD JOHAN SEH 45 1:05:56 06:36 9.08
85 509 LEURQUIN ANTHONY SEH 46 1:06:15 06:38 9.04
86 547 WAUQUAIRE EMMANUEL V2H 5 1:06:21 06:39 9.02
87 191 MARCHAL MICHAEL V1H 16 1:06:24 06:39 9.02
88 158 DELBROUCK THOMAS SEH 47 1:06:28 06:40 9.01
89 598 MICHOT JULIEN SEH 48 1:06:29 06:40 9.01
90 183 LANNEAU ALOÏS SEH 49 1:06:33 06:40 9.00
91 518 BAUDUIN CECILE SEF 9 1:06:35 06:40 8.99
92 611 DEMEURE EMILIE SEF 10 1:06:51 06:42 8.96
93 542 SIBILLE THIBAUD SEH 50 1:06:51 06:42 8.96
94 508 HIROUX VINCENT SEH 51 1:06:55 06:42 8.95
95 314 SPELEERS NICOLAS V1H 17 1:07:12 06:44 8.91
96 253 HÉNAUT CATHY V1F 4 1:07:55 06:48 8.82
97 256 DUPRET CAROLE V1F 5 1:07:55 06:48 8.82
98 221 BOURTEMBOURG LAURENT SEH 52 1:08:22 06:51 8.76
99 490 DE GELAN BEATRICE V1F 6 1:08:33 06:52 8.74
100 559 SIMON ESMERALDA V1F 7 1:08:40 06:53 8.72
101 266 FIORE SYLVIE V2F 1 1:08:42 06:53 8.72
102 213 LIENARD ERIC V1H 18 1:08:45 06:53 8.71
103 513 MENGAL P-A SEH 53 1:09:03 06:55 8.67
104 609 GÉRARD FABRICE V1H 19 1:09:04 06:55 8.67
105 487 ELIS AUDRE SEF 11 1:09:26 06:57 8.62
106 489 BUCHET ELISE SEF 12 1:09:26 06:57 8.62
107 189 NOEL JONATHAN SEH 54 1:10:26 07:03 8.50
108 172 DEGREVE GILLES SEH 55 1:10:28 07:04 8.50
109 226 HOUTERS LIONEL V2H 6 1:10:32 07:04 8.49
110 498 LANIS CYRIL EG 5 1:11:22 07:09 8.39
111 484 LONCOL LAURANE SEF 13 1:11:46 07:11 8.34
112 486 AUBERTIN DAMIEN SEH 56 1:11:47 07:12 8.34
113 532 DISKEUVE ANNE-SOPHIE SEF 14 1:12:29 07:16 8.26
114 604 HENRY ELODIE SEF 15 1:12:30 07:16 8.26
115 599 MAHY MARIE V1F 8 1:12:51 07:18 8.22
116 607 LATOUR FRANÇOIS V1H 20 1:12:52 07:18 8.22
117 284 LIÉTARD JEAN EG 6 1:13:09 07:20 8.19
118 281 FLAMENT LOUIS EG 7 1:13:13 07:20 8.18
119 602 HOUBEN CHARLOTTE SEF 16 1:13:18 07:21 8.17
120 215 ROBIN MICHEL V3H 2 1:13:35 07:22 8.14
121 217 DUPUIS ANNIE V2F 2 1:13:36 07:22 8.14
122 216 DUPUIS CLAUDINE V2F 3 1:13:36 07:22 8.14
123 527 CAPELLA SERGE V3H 3 1:14:01 07:25 8.09
124 608 WAUTHIA EVA SEF 17 1:14:22 07:27 8.05
125 312 BOURTEMBOURG VINCENT SEH 57 1:14:24 07:27 8.05
126 529 HANOTIER CHRISTINE V2F 4 1:14:28 07:28 8.04
127 579 MARES JULIEN SEH 58 1:15:24 07:33 7.94
128 594 DECOUX ARNAUD SEH 59 1:15:34 07:34 7.92
129 596 RENARD LUDOVIC SEH 60 1:15:34 07:34 7.92
130 595 CARDRON ROBERT V1H 21 1:16:15 07:38 7.85
131 517 BUYCK PASCAL V1H 22 1:17:38 07:47 7.71
132 233 LOUIS OCEANE EF 2 1:18:24 07:51 7.64
133 176 DEGREVE CAROLINE SEF 18 1:18:27 07:52 7.63
134 320 QUEDE ARNAUD V1H 23 1:18:34 07:52 7.62
135 214 VAN CAUTER MARIANA V2F 5 1:21:19 08:09 7.36
136 303 MOULIN LAURENCE V1F 9 1:21:21 08:09 7.36
137 295 DENIS BENOIT V1H 24 1:23:32 08:22 7.17
138 198 BORGHLEVENS CAMILLE SEF 19 1:23:32 08:22 7.17
139 197 ROBERT SANDRINE V1F 10 1:23:32 08:22 7.17
140 292 CAPIOT CHRISTOPHE V1H 25 1:23:40 08:23 7.16
141 219 GLINNE BERNADETTE V2F 6 1:23:51 08:24 7.14
142 186 LANNEAU INÈS V1F 11 1:27:47 08:48 6.82
143 170 C AMELIE SEF 20 1:30:31 09:04 6.62
144 187 ERNOULD STEPHANIE SEF 21 1:30:31 09:04 6.62
145 259 DEGALLAIX STEPHANE SEH 61 1:30:40 09:05 6.60
146 195 STEINIER ANGELIQUE SEF 22 1:32:11 09:14 6.50
147 192 WAUTHELET ELODIE SEF 23 1:32:14 09:15 6.49
148 321 GERNAEY LIES SEF 24 1:33:44 09:24 6.39
149 606 DIABANZA FANNY SEF 25 1:33:44 09:24 6.39
150 482 ROULOT BÉNÉDICTE SEF 26 1:34:02 09:25 6.37
151 544 LATTE CHRISTIAN V2H 7 1:34:27 09:28 6.34
152 545 FIORELLINI CHRISTINE V2F 7 1:34:27 09:28 6.34
153 235 LAMBLOT MARIE DENISE V1F 12 1:35:34 09:35 6.27
154 552 MORONCELLI SONIA V1F 13 1:39:40 09:59 6.01
155 524 FONTAINE FLORENCE V1F 14 1:40:28 10:04 5.96
156 523 FROMONT VALENTINE SEF 27 1:40:53 10:07 5.94
157 285 CHARLOTEAUX CATHY V1F 15 1:43:45 10:24 5.77
158 203 COULON ANGELIQUE SEF 28 1:43:46 10:24 5.77
159 315 LECHARLIER JULIE SEF 29 1:43:46 10:24 5.77
160 521 VANDENHOUWEEELE CHRISTOPHE V1H 26 1:46:03 10:38 5.65
161 300 PIERRARD CHRISTELLE V1F 16 2:40:25 16:04 3.73